GW1337 Weather Reports


Display with metric or nautical units.
time (UTC)temp
F
wind
direction
speed
MPH
gust
MPH
rain 1hr
in
rain 24hr
in
rain mn
in
humidity
%
barometer
mb
20260504070235 47 68 0.0 1.0 0.00 0.00 0.00 81 1016.6
20260504060155 47 69 0.0 0.0 0.00 0.00 0.00 76 1016.8
20260504050623 47 75 0.0 0.0 0.00 0.00 0.00 72 1016.9
20260504050120 47 76 0.0 0.0 0.00 0.00 0.00 72 1016.7
20260504045618 47 76 0.0 1.0 0.00 0.00 0.00 74 1016.7
20260504045112 47 75 0.0 0.0 0.00 0.00 0.00 75 1016.5
20260504044610 47 70 0.0 0.0 0.00 0.00 0.00 74 1016.9
20260504044107 46 70 0.0 0.0 0.00 0.00 0.00 74 1016.7
20260504043604 46 70 0.0 1.0 0.00 0.00 0.00 75 1016.5
20260504043101 46 70 0.0 1.0 0.00 0.00 0.00 75 1016.5
20260504042558 46 70 0.0 0.0 0.00 0.00 0.00 75 1016.5
20260504042055 46 70 0.0 0.0 0.00 0.00 0.00 75 1016.3
20260504041551 46 70 0.0 0.0 0.00 0.00 0.00 76 1016.3
20260504041047 46 70 0.0 0.0 0.00 0.00 0.00 76 1016.2
20260504040545 46 71 0.0 0.0 0.00 0.00 0.00 76 1016.4
20260504040041 46 71 0.0 0.0 0.00 0.00 0.00 75 1016.1
20260504035538 46 71 0.0 0.0 0.00 0.00 0.00 74 1016.0
20260504035034 46 71 0.0 0.0 0.00 0.00 0.00 74 1016.1
20260504034533 47 70 0.0 0.0 0.00 0.00 0.00 76 1016.1
20260504034029 47 70 0.0 0.0 0.00 0.00 0.00 76 1016.1
20260504033527 47 70 0.0 0.0 0.00 0.00 0.00 73 1016.0
20260504033024 47 70 0.0 0.0 0.00 0.00 0.00 73 1016.0
20260504032521 47 69 0.0 0.0 0.00 0.00 0.00 72 1016.0
20260504032018 47 68 0.0 0.0 0.00 0.00 0.00 74 1015.9
20260504031515 47 67 0.0 0.0 0.00 0.00 0.00 72 1015.9
20260504031011 47 67 0.0 0.0 0.00 0.00 0.00 74 1015.9
20260504030508 47 67 0.0 0.0 0.00 0.00 0.00 72 1015.8
20260504030004 47 67 0.0 0.0 0.00 0.00 0.00 71 1015.9
20260504025501 48 67 0.0 0.0 0.00 0.00 0.00 69 1016.0
20260504024958 48 67 0.0 1.0 0.00 0.00 0.00 71 1016.1
20260504024455 48 67 0.0 0.0 0.00 0.00 0.00 70 1015.9
20260504023952 48 67 0.0 0.0 0.00 0.00 0.00 68 1015.8
20260504023449 48 67 0.0 0.0 0.00 0.00 0.00 69 1015.9
20260504022944 48 67 0.0 0.0 0.00 0.00 0.00 71 1015.8
20260504022441 48 67 0.0 0.0 0.00 0.00 0.00 70 1016.0
20260504021937 48 67 0.0 0.0 0.00 0.00 0.00 70 1015.7
20260504021435 49 67 0.0 0.0 0.00 0.00 0.00 70 1015.9
20260504020932 49 67 0.0 0.0 0.00 0.00 0.00 68 1015.9
20260504020428 49 67 0.0 0.0 0.00 0.00 0.00 64 1015.9
20260504015925 49 67 0.0 0.0 0.00 0.00 0.00 63 1015.8
20260504015421 49 67 0.0 0.0 0.00 0.00 0.00 64 1015.9
20260504014917 50 67 0.0 0.0 0.00 0.00 0.00 67 1016.0
20260504014414 50 67 0.0 0.0 0.00 0.00 0.00 65 1015.8
20260504013910 50 67 0.0 0.0 0.00 0.00 0.00 62 1015.7
20260504013409 50 67 0.0 0.0 0.00 0.00 0.00 61 1015.9
20260504012905 51 67 0.0 0.0 0.00 0.00 0.00 65 1015.8
20260504012403 51 67 0.0 0.0 0.00 0.00 0.00 63 1015.5
20260504011900 51 67 0.0 0.0 0.00 0.00 0.00 60 1015.7
20260504011357 51 67 0.0 0.0 0.00 0.00 0.00 63 1015.6
20260504010852 52 67 0.0 0.0 0.00 0.00 0.00 61 1015.4
20260504010348 52 67 0.0 0.0 0.00 0.00 0.00 62 1015.4
20260504005845 52 67 0.0 0.0 0.00 0.00 0.00 57 1015.4
20260504005342 52 67 0.0 0.0 0.00 0.00 0.00 56 1015.3
20260504004839 53 67 0.0 0.0 0.00 0.00 0.00 56 1015.2
20260504004337 53 67 0.0 0.0 0.00 0.00 0.00 54 1015.2
20260504003833 53 67 0.0 0.0 0.00 0.00 0.00 59 1015.1
20260504003330 54 67 0.0 0.0 0.00 0.00 0.00 55 1015.2
20260504002827 54 67 0.0 0.0 0.00 0.00 0.00 55 1015.0
20260504002323 54 67 0.0 0.0 0.00 0.00 0.00 52 1015.0
20260504001821 55 67 0.0 0.0 0.00 0.00 0.00 55 1015.0
20260504001318 55 67 0.0 0.0 0.00 0.00 0.00 49 1014.8
20260504000815 55 67 0.0 0.0 0.00 0.00 0.00 52 1014.7
20260504000312 56 67 0.0 0.0 0.00 0.00 0.00 48 1014.7
20260503235810 56 67 0.0 0.0 0.00 0.00 0.00 45 1014.7
20260503235307 57 67 0.0 0.0 0.00 0.00 0.00 46 1014.6
20260503234805 57 67 0.0 0.0 0.00 0.00 0.00 45 1014.5
20260503234303 57 66 0.0 1.0 0.00 0.00 0.00 43 1014.8
20260503233800 58 88 0.0 0.0 0.00 0.00 0.00 44 1014.5
20260503233255 58 88 0.0 0.0 0.00 0.00 0.00 42 1014.6
20260503232753 59 89 0.0 1.0 0.00 0.00 0.00 41 1014.5
20260503232250 59 64 0.0 1.0 0.00 0.00 0.00 41 1014.5
20260503231748 59 76 0.0 0.0 0.00 0.00 0.00 42 1014.4
20260503231245 59 45 1.0 2.0 0.00 0.00 0.00 39 1014.6
20260503230740 59 75 0.0 0.0 0.00 0.00 0.00 39 1014.7
20260503230238 60 20 1.0 2.0 0.00 0.00 0.00 39 1014.4
20260503225735 60 89 1.0 1.0 0.00 0.00 0.00 39 1014.5
20260503225235 60 91 1.0 2.0 0.00 0.00 0.00 37 1014.4
20260503224732 60 46 0.0 2.0 0.00 0.00 0.00 38 1014.4
20260503224230 60 57 0.0 2.0 0.00 0.00 0.00 37 1014.5
20260503223727 60 124 1.0 2.0 0.00 0.00 0.00 37 1014.6
20260503223225 60 50 0.0 1.0 0.00 0.00 0.00 39 1014.4
20260503222721 61 60 0.0 2.0 0.00 0.00 0.00 40 1014.4
20260503222219 61 93 0.0 1.0 0.00 0.00 0.00 38 1014.5
20260503221717 61 62 1.0 2.0 0.00 0.00 0.00 40 1014.4
20260503221214 61 86 0.0 2.0 0.00 0.00 0.00 36 1014.3
20260503180915 62 345 3.0 5.0 0.00 0.00 0.00 36 1015.7
20260503180414 62 345 3.0 5.0 0.00 0.00 0.00 36 1015.7
20260503175910 62 4 1.0 2.0 0.00 0.00 0.00 40 1015.5
20260503175409 62 17 3.0 3.0 0.00 0.00 0.00 38 1015.6
20260503174904 61 4 1.0 3.0 0.00 0.00 0.00 43 1015.8
20260503174402 62 24 3.0 3.0 0.00 0.00 0.00 36 1015.8
20260503173857 62 104 1.0 2.0 0.00 0.00 0.00 37 1015.8
20260503173353 62 84 0.0 5.0 0.00 0.00 0.00 39 1016.0
20260503172850 61 17 1.0 1.0 0.00 0.00 0.00 36 1015.5
20260503172348 61 13 1.0 2.0 0.00 0.00 0.00 40 1016.0
20260503171844 60 357 1.0 3.0 0.00 0.00 0.00 42 1016.1
20260503171341 59 55 0.0 1.0 0.00 0.00 0.00 44 1016.2
20260503170838 58 32 1.0 3.0 0.00 0.00 0.00 39 1016.1
20260503170334 60 10 2.0 2.0 0.00 0.00 0.00 39 1016.0
20260503150727 55 51 0.0 1.0 0.00 0.00 0.00 52 1016.4
20260503150223 55 39 1.0 1.0 0.00 0.00 0.00 51 1016.4
20260503140147 51 84 1.0 3.0 0.00 0.00 0.00 57 1016.6
20260503131117 48 53 1.0 3.0 0.00 0.00 0.00 61 1016.2
20260503130614 48 36 2.0 3.0 0.00 0.00 0.00 63 1016.1
20260503130112 48 72 1.0 1.0 0.00 0.00 0.00 65 1016.0
20260503110504 46 52 0.0 0.0 0.00 0.00 0.00 72 1015.2
20260503090350 44 63 1.0 1.0 0.00 0.00 0.00 78 1013.7
20260503081317 44 59 0.0 1.0 0.00 0.00 0.00 77 1013.7
20260503080814 44 60 0.0 0.0 0.00 0.00 0.00 77 1013.5
20260503080311 44 68 0.0 0.0 0.00 0.00 0.00 78 1013.6